[[{"header":{"parameterUnit":"m.s-1","parameterCategory":1,"la1":30.2991,"la2":30.254,"lo1":-89.0895,"lo2":-89.0444,"dy":0.0017,"dx":0.0017,"nx":28,"ny":28,"refTime":"2025-02-26T09:00:00:Z","depth":0,"parameterNumber":2,"parameterNumberName":"U-component_of_WINDS"},"data":[0,0,0,0,0,0,0,0,0,0,0,0,0,0,0,0,0,0,0,0,0,0,0,0,0,0,0,0,0,0,0,0,0,0,0,0,0,0,0,0,0,0,0,0,0,0,0,0,0,0,0,0,0,0,0,0,0,0,1.5138,1.5138,0,1.5175,1.5175,1.5176,1.5119,1.5117,1.5115,1.5113,1.5154,1.5157,1.516,0,0,0,0,0,0,0,0,0,0,0,0,0,1.5023,1.5025,1.5138,1.5138,1.5139,1.5175,1.5175,1.5176,1.5119,1.5117,1.5115,1.5112,1.5153,1.5157,1.516,0,0,0,0,0,0,0,0,0,0,0,0,0,1.5068,1.5026,1.5138,1.5115,1.5113,1.5175,1.5175,1.5176,1.512,1.5117,1.5114,1.5111,1.5152,1.5156,1.5161,1.5248,0,0,1.5174,1.5176,0,0,0,0,0,0,0,0,1.5065,1.5072,1.5118,1.5117,1.5115,1.5139,1.515,1.52,1.5121,1.5117,1.5113,1.511,1.5152,1.5156,1.517,1.5249,1.5251,1.5175,1.5177,1.5179,1.518,0,0,0,0,0,0,0,1.5062,1.507,1.5153,1.5119,1.5117,1.5104,1.5107,1.5159,1.5151,1.5117,1.5113,1.5118,1.515,1.5166,1.517,1.5252,1.5174,1.5178,1.5181,1.5183,1.5408,1.5411,0,0,0,0,0,0,1.5061,1.5068,1.5151,1.5154,1.5082,1.5109,1.5112,1.5134,1.515,1.515,1.5121,1.5116,1.5159,1.5165,1.5171,1.5276,1.5179,1.5183,1.5186,1.5404,1.5408,1.5412,0,0,0,0,0,0,1.5059,1.5069,1.515,1.511,1.5119,1.5114,1.5139,1.5137,1.5152,1.5153,1.5151,1.5138,1.5157,1.5165,1.5229,1.5276,1.5185,1.5189,1.5401,1.5406,1.541,1.5485,0,0,0,0,0,0,1.5056,1.5069,1.51,1.5111,1.5121,1.5206,1.5142,1.514,1.5159,1.5153,1.5168,1.5168,1.5156,1.5223,1.5234,1.5281,1.5193,1.5396,1.5403,1.5409,1.5478,1.5491,1.5503,0,0,0,0,0,1.5052,1.512,1.5102,1.5113,1.5161,1.5209,1.5215,1.5199,1.5163,1.5196,1.5197,1.5167,1.527,1.523,1.5242,1.5291,1.5393,1.5401,1.5408,1.5472,1.5489,1.5503,0,0,0,0,0,0,1.5116,1.5121,1.5101,1.5174,1.5192,1.5199,1.524,1.5217,1.5245,1.5238,1.5217,1.5221,1.5291,1.5297,1.5253,1.5377,1.5326,1.5336,1.537,1.5386,1.5399,1.5396,1.5196,0,0,0,0,0,1.5138,1.5176,1.5179,1.5243,1.5253,1.5245,1.5265,1.5252,1.5269,1.5276,1.5282,1.5301,1.5338,1.5362,1.5396,1.5479,1.5482,1.5518,1.5531,1.5541,1.5551,1.5597,1.5614,1.5437,1.5437,1.5436,0,0,1.5185,1.5193,1.5218,1.5256,1.5268,1.5309,1.5252,1.5297,1.5328,1.5283,1.5344,1.535,1.537,1.5445,1.5478,1.5452,1.5601,1.5551,1.5559,1.5563,1.5607,1.5624,1.5639,1.5442,1.5441,1.544,0,0,1.5292,1.5301,1.5356,1.537,1.5388,1.5383,1.5396,1.5408,1.541,1.547,1.5439,1.5476,1.5539,1.5555,1.5572,1.5687,1.5662,1.5699,1.5765,1.5811,1.5825,1.5837,1.5881,1.5896,1.5708,1.5708,1.5708,0,1.5349,1.5408,1.5388,1.5436,1.5455,1.5417,1.5474,1.5488,1.5517,1.5532,1.5502,1.5582,1.5593,1.5672,1.57,1.5714,1.5731,1.5697,1.5824,1.5837,1.5848,1.5889,1.5905,1.5713,1.5712,1.5712,1.5711,0,1.5477,1.5519,1.5562,1.5591,1.5614,1.5667,1.5657,1.5684,1.5668,1.5667,1.5731,1.5743,1.5779,1.5797,1.5782,1.5875,1.5859,1.5827,1.5775,1.587,1.5908,1.5923,1.5719,1.5718,1.5716,1.5715,0,0,1.5625,1.5643,1.5659,1.5673,1.5691,1.5724,1.5776,1.5811,1.5835,1.5857,1.5901,1.5956,1.5928,1.5947,1.5934,1.5975,1.6068,1.5938,1.5939,1.5964,1.6174,1.6198,1.6217,1.6051,1.6054,1.6057,1.6173,0,1.5733,1.5821,1.5806,1.5892,1.5932,1.5897,1.5943,1.596,1.5961,1.5996,1.5997,1.6037,1.5996,1.6007,1.6046,1.6049,1.6111,1.604,1.6095,1.6097,1.6092,1.6236,1.6262,1.6371,1.6188,1.619,1.6192,0,1.587,1.5897,1.5987,1.6001,1.6017,1.6058,1.6091,1.6124,1.6144,1.6142,1.6164,1.6145,1.6199,1.6146,1.6221,1.6174,1.6196,1.6201,1.6205,1.621,1.6151,1.6247,1.6405,1.6422,1.6215,1.6213,1.6211,0,1.5971,1.6029,1.6092,1.6104,1.6122,1.6152,1.6161,1.6178,1.6201,1.6229,1.6244,1.6279,1.6299,1.6327,1.6319,1.628,1.6397,1.6342,1.6399,1.6399,1.6425,1.6424,1.6591,1.6437,1.6437,1.6437,1.6436,0,1.6093,1.615,1.6137,1.6176,1.624,1.6223,1.6287,1.6292,1.6308,1.6348,1.632,1.6359,1.6345,1.6383,1.6377,1.6442,1.6451,1.6452,1.645,1.6456,1.6456,1.647,1.6463,1.6441,1.644,1.6439,1.6439,0,1.6216,1.621,1.6276,1.6287,1.6292,1.6339,1.6349,1.6387,1.6385,1.6437,1.6448,1.6447,1.6492,1.6486,1.6535,1.6531,1.6613,1.6601,1.6606,1.6604,1.6661,1.6656,1.6844,1.6868,1.6698,1.6699,1.6701,0,1.6296,1.6339,1.6355,1.638,1.6391,1.6431,1.6454,1.644,1.6466,1.6493,1.6528,1.657,1.6602,1.6675,1.668,1.6719,1.6708,1.6771,1.6714,1.6719,1.6712,1.671,1.6715,1.6783,1.6785,1.6787,1.6788,0,1.6438,1.6433,1.6466,1.65,1.6529,1.6555,1.6578,1.66,1.6589,1.662,1.6664,1.669,1.6741,1.6783,1.682,1.6831,1.6809,1.6806,1.6821,1.6828,1.683,1.6831,1.6638,1.6802,1.68,1.6799,1.6799,1.6798,1.6542,1.658,1.6598,1.6638,1.6654,1.6677,1.6713,1.6717,1.6753,1.6793,1.6783,1.6834,1.6856,1.6903,1.6918,1.6959,1.6936,1.6958,1.6964,1.697,1.6978,1.6822,1.6966,1.6965,1.6965,1.6965,1.6964,0,1.6684,1.6694,1.6731,1.6765,1.6797,1.6771,1.6797,1.6826,1.6871,1.6892,1.6925,1.6978,1.702,1.7029,1.7069,1.7101,1.7092,1.7112,1.7111,1.7114,1.6995,1.6978,1.7119,1.7119,1.7119,1.7119,1.7119,1.7119,1.6762,1.6825,1.6823,1.6895,1.6905,1.6954,1.6971,1.6993,1.701,1.707,1.7105,1.711,1.7127,1.7169,1.7207,1.7209,1.7226,1.7251,1.7249,1.7138,1.7122,1.7107,1.7092,1.7254,1.7255,1.7365,1.7366,1.7367]},{"header":{"parameterUnit":"m.s-1","parameterCategory":1,"la1":30.2991,"la2":30.254,"lo1":-89.0895,"lo2":-89.0444,"dy":0.0017,"dx":0.0017,"nx":28,"ny":28,"refTime":"2025-02-26T09:00:00:Z","depth":0,"parameterNumber":3,"parameterNumberName":"V-component_of_WINDS"},"data":[0,0,0,0,0,0,0,0,0,0,0,0,0,0,0,0,0,0,0,0,0,0,0,0,0,0,0,0,0,0,0,0,0,0,0,0,0,0,0,0,0,0,0,0,0,0,0,0,0,0,0,0,0,0,0,0,0,0,-0.7872,-0.7872,0,-0.7821,-0.782,-0.782,-0.7824,-0.7825,-0.7826,-0.7826,-0.7768,-0.7765,-0.7763,0,0,0,0,0,0,0,0,0,0,0,0,0,-0.7968,-0.7966,-0.7872,-0.7871,-0.7871,-0.7821,-0.782,-0.7819,-0.7824,-0.7825,-0.7826,-0.7827,-0.7768,-0.7766,-0.7763,0,0,0,0,0,0,0,0,0,0,0,0,0,-0.7922,-0.7966,-0.7872,-0.7867,-0.7866,-0.7821,-0.782,-0.7819,-0.7824,-0.7825,-0.7826,-0.7827,-0.7769,-0.7766,-0.7762,-0.7717,0,0,-0.7752,-0.775,0,0,0,0,0,0,0,0,-0.7925,-0.7919,-0.7869,-0.7867,-0.7866,-0.783,-0.7833,-0.7785,-0.7823,-0.784,-0.7826,-0.7828,-0.7787,-0.7782,-0.777,-0.7714,-0.7712,-0.7752,-0.7749,-0.7748,-0.7747,0,0,0,0,0,0,0,-0.7928,-0.7921,-0.7852,-0.7868,-0.7866,-0.7866,-0.786,-0.7824,-0.7807,-0.7838,-0.7838,-0.7833,-0.7787,-0.7773,-0.7768,-0.7711,-0.7752,-0.7749,-0.7746,-0.7745,-0.7615,-0.7614,0,0,0,0,0,0,-0.7933,-0.7924,-0.7853,-0.785,-0.7899,-0.7863,-0.7857,-0.784,-0.7807,-0.7804,-0.7832,-0.7833,-0.7778,-0.7772,-0.7766,-0.771,-0.7748,-0.7745,-0.7743,-0.7617,-0.7615,-0.7614,0,0,0,0,0,0,-0.7935,-0.7927,-0.7855,-0.7887,-0.7878,-0.786,-0.7841,-0.7839,-0.7825,-0.7803,-0.7799,-0.7821,-0.7779,-0.7771,-0.773,-0.7708,-0.7743,-0.774,-0.7618,-0.7616,-0.7614,-0.7599,0,0,0,0,0,0,-0.7938,-0.7928,-0.7912,-0.7887,-0.7876,-0.7821,-0.784,-0.7837,-0.782,-0.7821,-0.7792,-0.7788,-0.7779,-0.7735,-0.7726,-0.7704,-0.7737,-0.762,-0.7617,-0.7615,-0.7601,-0.7596,-0.7592,0,0,0,0,0,-0.7942,-0.7908,-0.7911,-0.7902,-0.7856,-0.782,-0.7814,-0.7806,-0.7818,-0.7801,-0.7787,-0.7789,-0.7713,-0.7731,-0.7721,-0.7698,-0.7621,-0.7618,-0.7615,-0.7603,-0.7597,-0.7592,0,0,0,0,0,0,-0.7928,-0.7905,-0.7907,-0.7865,-0.7845,-0.7821,-0.7799,-0.78,-0.7774,-0.7776,-0.7767,-0.776,-0.7718,-0.7704,-0.7724,-0.7652,-0.7668,-0.7663,-0.7662,-0.7657,-0.7653,-0.7656,-0.7734,0,0,0,0,0,-0.7921,-0.7896,-0.7876,-0.784,-0.783,-0.7816,-0.78,-0.7797,-0.7774,-0.7765,-0.7747,-0.7724,-0.7694,-0.7675,-0.7647,-0.76,-0.7592,-0.7579,-0.7575,-0.7571,-0.7566,-0.7539,-0.7532,-0.7603,-0.7603,-0.7603,0,0,-0.7905,-0.7889,-0.7873,-0.7837,-0.7821,-0.7793,-0.7809,-0.7779,-0.7757,-0.7759,-0.7719,-0.7706,-0.7679,-0.7634,-0.7614,-0.7621,-0.7545,-0.7567,-0.7565,-0.7561,-0.7535,-0.7528,-0.7522,-0.7601,-0.7602,-0.7602,0,0,-0.786,-0.7846,-0.7815,-0.7799,-0.7775,-0.7766,-0.7759,-0.7735,-0.7727,-0.7687,-0.7688,-0.7662,-0.7612,-0.7592,-0.7576,-0.7526,-0.7526,-0.7517,-0.7493,-0.7467,-0.7461,-0.7456,-0.7437,-0.743,-0.7512,-0.7512,-0.7512,0,-0.7842,-0.7802,-0.7798,-0.7768,-0.7752,-0.7755,-0.7722,-0.7706,-0.7674,-0.7661,-0.7671,-0.7609,-0.7591,-0.7541,-0.7529,-0.7516,-0.7506,-0.7519,-0.7463,-0.7458,-0.7453,-0.7434,-0.7427,-0.7511,-0.7511,-0.7511,-0.7511,0,-0.778,-0.7752,-0.773,-0.77,-0.7682,-0.765,-0.764,-0.7621,-0.7619,-0.7609,-0.7568,-0.7547,-0.7515,-0.7503,-0.75,-0.7453,-0.7458,-0.7466,-0.7482,-0.7445,-0.7427,-0.742,-0.7509,-0.751,-0.751,-0.751,0,0,-0.7724,-0.7694,-0.7686,-0.7672,-0.7647,-0.7624,-0.7593,-0.7563,-0.7547,-0.7524,-0.7496,-0.7455,-0.7462,-0.7443,-0.7438,-0.7415,-0.7375,-0.7425,-0.7425,-0.7415,-0.732,-0.7313,-0.7305,-0.7377,-0.7375,-0.7374,-0.7322,0,-0.7676,-0.7622,-0.7618,-0.7568,-0.7542,-0.7546,-0.7518,-0.7498,-0.7488,-0.7462,-0.7451,-0.7421,-0.7433,-0.7422,-0.74,-0.7385,-0.7356,-0.7389,-0.7348,-0.7347,-0.7353,-0.7296,-0.7289,-0.724,-0.7315,-0.7314,-0.7313,0,-0.7612,-0.759,-0.7538,-0.7517,-0.7506,-0.7481,-0.7453,-0.743,-0.7407,-0.7401,-0.7382,-0.738,-0.7346,-0.7365,-0.7316,-0.7339,-0.7322,-0.7313,-0.7311,-0.7305,-0.7326,-0.7287,-0.7225,-0.7217,-0.7302,-0.7303,-0.7304,0,-0.7574,-0.7532,-0.7495,-0.7484,-0.7458,-0.7441,-0.7429,-0.7408,-0.739,-0.7366,-0.7354,-0.7325,-0.7309,-0.7286,-0.7276,-0.7291,-0.7227,-0.7246,-0.7219,-0.7219,-0.7204,-0.7205,-0.7136,-0.7196,-0.7197,-0.7197,-0.7197,0,-0.752,-0.7488,-0.7478,-0.7455,-0.7419,-0.7415,-0.7378,-0.7367,-0.7348,-0.7322,-0.7324,-0.7298,-0.7288,-0.7261,-0.7253,-0.7213,-0.7206,-0.7199,-0.7196,-0.7197,-0.7198,-0.7185,-0.7187,-0.7195,-0.7195,-0.7196,-0.7196,0,-0.7471,-0.7463,-0.7424,-0.7404,-0.7398,-0.7372,-0.7353,-0.7331,-0.7322,-0.7289,-0.728,-0.7265,-0.7234,-0.7222,-0.7183,-0.7178,-0.7131,-0.7133,-0.7139,-0.7138,-0.7112,-0.7114,-0.703,-0.7019,-0.7088,-0.7088,-0.7087,0,-0.7435,-0.7411,-0.7389,-0.7373,-0.7361,-0.7334,-0.7317,-0.7312,-0.7293,-0.7266,-0.7246,-0.7215,-0.719,-0.7139,-0.7123,-0.7093,-0.7092,-0.7066,-0.7088,-0.7089,-0.709,-0.7091,-0.7087,-0.7061,-0.706,-0.7059,-0.7059,0,-0.7373,-0.7371,-0.7347,-0.7322,-0.7302,-0.7282,-0.7261,-0.7247,-0.7239,-0.7218,-0.7187,-0.7167,-0.7128,-0.7097,-0.7066,-0.7052,-0.7053,-0.7053,-0.7044,-0.7044,-0.7048,-0.7044,-0.7126,-0.7054,-0.7054,-0.7055,-0.7055,-0.7055,-0.7329,-0.7307,-0.7288,-0.7262,-0.7247,-0.7228,-0.7206,-0.7195,-0.717,-0.7139,-0.7137,-0.7103,-0.708,-0.704,-0.7024,-0.6996,-0.7003,-0.6992,-0.6988,-0.6985,-0.6983,-0.7055,-0.699,-0.6991,-0.6991,-0.6991,-0.6991,0,-0.7265,-0.7254,-0.723,-0.7203,-0.7181,-0.7188,-0.7166,-0.7147,-0.7117,-0.7098,-0.7074,-0.7037,-0.7007,-0.6989,-0.6959,-0.6939,-0.6939,-0.6931,-0.6931,-0.6928,-0.6979,-0.6988,-0.6932,-0.6932,-0.6932,-0.6932,-0.6932,-0.6932,-0.7229,-0.7193,-0.7189,-0.7145,-0.7133,-0.7101,-0.7088,-0.707,-0.7055,-0.7015,-0.699,-0.698,-0.6961,-0.6929,-0.6901,-0.6896,-0.6884,-0.6875,-0.6871,-0.6918,-0.6924,-0.693,-0.6939,-0.6873,-0.6873,-0.6822,-0.6822,-0.6821]}]]